Weather History for Lancaster, CA

Change the Weather History Date:

Friday, March 8, 2013

  Actual Average Record
Temperature  
Mean Temperature 44 °F 52 °F  
Max Temperature 50 °F 66 °F 83 °F (1972)
Min Temperature 37 °F 38 °F 21 °F (2012)
Degree Days  
Heating Degree Days 21    
Month to date heating degree days 93  
Since 1 July heating degree days 2465  
Cooling Degree Days 0    
Month to date cooling degree days 0  
Year to date cooling degree days 0  
Moisture  
Dew Point 34 °F    
Average Humidity 71    
Maximum Humidity 85    
Minimum Humidity 56    
Precipitation  
Precipitation 0.35 in 0.05 in 0.47 in (1986)
Month to date precipitation 0.35 0.39  
Year to date precipitation 0.95 3.67  
Since 1 July precipitation 1.11 6.14  
Snow  
Snow 0.00 in - 0.00 in ()
Month to date snowfall 0.0  
Since 1 July snowfall 0.0  
Snow Depth 0.00 in    
Sea Level Pressure  
Sea Level Pressure 29.86 in    
Wind  
Wind Speed 15 mph (WSW)    
Max Wind Speed 32 mph    
Max Gust Speed 38 mph    
Visibility 10 miles    
Events Rain    
T = Trace of Precipitation, MM = Missing Value Source: NWS Daily Summary

Daily Weather History Graph

Daily Weather History Graph

Search for Another Location

Airport:

Trip Planner

Search our weather history database for the weather conditions in past years. The results will help you decide how hot, cold, wet, or windy it might be!

Date:

Astronomy

Mar. 08, 2013 Rise Set
Actual Time 6:12 AM PST 5:55 PM PST
Civil Twilight 5:47 AM PST 6:20 PM PST
Nautical Twilight 5:18 AM PST 6:49 PM PST
Astronomical Twilight 4:48 AM PST 7:18 PM PST
Moon 3:53 AM PST (3/8) 3:01 PM PST (3/8)
Length of Visible Light 12h 32m
Length of Day
11h 42m
Waning Crescent, 11% of the Moon is Illuminated
Mar 8
Waning Crescent
Mar 11
New
Mar 19
First Quarter
Mar 27
Full
Apr 2
Last Quarter

Hourly Weather History & Observations

Time (PST) Temp. Windchill Dew Point Humidity Pressure Visibility Wind Dir Wind Speed Gust Speed Precip Events Conditions
12:56 AM 39.9 °F 37.8 °F 34.0 °F 79% 29.81 in 10.0 mi East 3.5 mph - N/A   Mostly Cloudy
1:56 AM 41.0 °F 37.1 °F 33.1 °F 73% 29.79 in 10.0 mi South 5.8 mph - N/A   Overcast
2:56 AM 41.0 °F 38.0 °F 35.1 °F 79% 29.78 in 5.0 mi South 4.6 mph - 0.03 in Rain Rain
3:56 AM 39.9 °F 34.5 °F 35.1 °F 83% 29.78 in 6.0 mi WSW 8.1 mph - 0.14 in Rain Rain
4:56 AM 37.9 °F 31.5 °F 33.1 °F 83% 29.81 in 5.0 mi West 9.2 mph - 0.14 in Rain Rain
5:46 AM 37.4 °F 30.8 °F 33.8 °F 87% 29.77 in 10.0 mi WNW 9.2 mph - 0.04 in Rain Light Rain
5:56 AM 37.0 °F 31.6 °F 33.1 °F 86% 29.78 in 10.0 mi NW 6.9 mph - 0.04 in   Mostly Cloudy
6:56 AM 37.0 °F 31.6 °F 34.0 °F 89% 29.80 in 10.0 mi SSW 6.9 mph - N/A   Overcast
7:56 AM 39.0 °F 34.0 °F 35.1 °F 86% 29.83 in 10.0 mi South 6.9 mph - N/A   Overcast
8:56 AM 41.0 °F 34.7 °F 35.1 °F 79% 29.86 in 10.0 mi West 10.4 mph - N/A   Mostly Cloudy
9:47 AM 41.0 °F 34.3 °F 35.6 °F 81% 29.84 in 10.0 mi WSW 11.5 mph - N/A   Scattered Clouds
9:56 AM 42.1 °F 36.6 °F 35.1 °F 76% 29.86 in 10.0 mi SW 9.2 mph - N/A   Partly Cloudy
10:54 AM 44.6 °F 38.1 °F 33.8 °F 66% 29.84 in 10.0 mi SW 13.8 mph 23.0 mph N/A   Mostly Cloudy
10:56 AM 45.0 °F 38.5 °F 35.1 °F 68% 29.86 in 10.0 mi SW 13.8 mph 23.0 mph N/A   Mostly Cloudy
11:15 AM 44.6 °F 38.1 °F 33.8 °F 66% 29.84 in 10.0 mi SW 13.8 mph - N/A   Scattered Clouds
11:56 AM 46.0 °F 39.3 °F 33.1 °F 61% 29.86 in 10.0 mi WSW 16.1 mph - N/A   Mostly Cloudy
12:56 PM 46.0 °F 39.0 °F 33.1 °F 61% 29.86 in 10.0 mi WSW 17.3 mph - N/A   Overcast
1:56 PM 46.9 °F - 32.0 °F 56% 29.85 in 10.0 mi West 24.2 mph 29.9 mph N/A   Overcast
2:56 PM 48.9 °F - 33.1 °F 54% 29.85 in 10.0 mi West 25.3 mph - N/A   Clear
3:56 PM 48.0 °F - 33.1 °F 56% 29.86 in 10.0 mi West 28.8 mph 38.0 mph N/A   Clear
4:56 PM 46.0 °F 37.4 °F 34.0 °F 63% 29.88 in 10.0 mi West 25.3 mph 32.2 mph N/A   Mostly Cloudy
5:56 PM 44.1 °F 35.0 °F 34.0 °F 68% 29.90 in 10.0 mi West 24.2 mph - N/A   Clear
6:56 PM 44.1 °F 34.8 °F 33.1 °F 65% 29.92 in 10.0 mi West 25.3 mph 31.1 mph N/A   Clear
7:56 PM 44.1 °F 36.5 °F 34.0 °F 68% 29.96 in 10.0 mi WSW 17.3 mph - N/A   Partly Cloudy
8:56 PM 44.1 °F 35.9 °F 33.1 °F 65% 29.97 in 10.0 mi WSW 19.6 mph - N/A   Clear
9:56 PM 44.1 °F 35.4 °F 33.1 °F 65% 29.98 in 10.0 mi West 21.9 mph - N/A   Clear
10:56 PM 44.1 °F 35.4 °F 34.0 °F 68% 29.99 in 10.0 mi West 21.9 mph 28.8 mph N/A   Partly Cloudy
11:56 PM 43.0 °F 34.8 °F 33.1 °F 68% 29.99 in 10.0 mi West 18.4 mph 29.9 mph N/A   Overcast